Regional Weather Roundup
Issued by NWS

Home | Current Version | Previous Version | Text Only | Print | Product List | Glossary On
Versions: 1 2 3 4 5 6 7 8 9 10 11 12 13 14 15 16 17 18 19 20 21 22 23 24 25 26 27 28 29 30 31 32 33 34 35 36 37 38 39 40 41 42 43 44 45 46 47 48 49 50
000
ASUS44 KEWX 221602
RWRTX
SOUTH TEXAS REGIONAL WEATHER ROUNDUP
NATIONAL WEATHER SERVICE AUSTIN/SAN ANTONIO TX
1100 AM CDT FRI AUG 22 2014

NOTE: "FAIR" INDICATED FEW OR NO CLOUDS BELOW 12,000 FEET WITH NO
SIGNIFICANT WEATHER AND/OR OBSTRUCTIONS TO VISIBILITY.

* - THESE STATIONS ARE NOT NWS OR FAA STATIONS...AND ARE NOT SUBJECT
    TO NWS AND FAA QUALITY CONTROL.

TXZ171-172-183>190-221700-
TEXAS HILL COUNTRY AND EDWARDS PLATEAU

CITY           SKY/WX    TMP DP  RH WIND       PRES   REMARKS
JUNCTION       SUNNY     83  63  50 S10       30.10S
*LLANO         SUNNY     90  63  40 S13       30.11F HX  90
BURNET         SUNNY     87  64  46 S13       30.12S
*HORSESHOE BAY SUNNY     88  61  40 S7G17     30.09S
*KERRVILLE     SUNNY     83  67  58 S10G17    30.12S
*FREDERICKSBRG SUNNY     83  62  48 SW15G21   30.11S
*ROCKSPRINGS   SUNNY     81  66  61 S10       30.14S
*BOERNE STAGE  SUNNY     82  64  54 S10       30.11F
*CASTROVILLE   SUNNY     87  66  50 S9        30.08S
HONDO          SUNNY     86  68  54 S12       30.09S
*UVALDE        SUNNY     85  71  61 S8        30.07F HX  90
DEL RIO        MOSUNNY   84  68  58 SE9G18    30.03S
LAUGHLIN AFB   SUNNY     83  69  61 SE13G21   30.04S
CARRIZO SPRGS  SUNNY     88  66  48 S10G18    30.02S HX  90
$$

TXZ173-191>194-202-209-217>225-228-221700-
CENTRAL AND SOUTH CENTRAL TEXAS

CITY           SKY/WX    TMP DP  RH WIND       PRES   REMARKS
GEORGETOWN     SUNNY     90  68  48 SW14      30.09S HX  93
AUSTIN/BERGSTM MOSUNNY   89  70  53 S12G23    30.07S HX  94
AUSTIN/MABRY   SUNNY     90  69  50 S8G17     30.08S HX  94
*AUSTIN/EXEC   SUNNY     88  72  58 SW13      30.09R HX  94
*LAGO VISTA    SUNNY     89  65  45 S10       30.11S HX  90
SAN MARCOS     SUNNY     90  68  48 S12       30.09S HX  93
NEW BRAUNFELS  SUNNY     90  68  48 S15       30.07R HX  94
RANDOLPH AFB   SUNNY     89  67  48 S13       30.08S HX  91
PT SAN ANTONIO SUNNY     88  68  50 S8        30.06S HX  92
SAN ANTONIO    MOSUNNY   88  68  51 S12       30.08S HX  91
STINSON FIELD  SUNNY     89  69  51 SE9       30.05S HX  93
*PLEASANTON    SUNNY     90  66  45 S8        30.06S HX  93
*LA GRANGE     MOSUNNY   91  74  58 SW8       30.06S HX 100
*GIDDINGS      MOSUNNY   88  71  55 S9G16     30.11S HX  93
*GONZALES      SUNNY     90  74  57 S9        30.07S HX  99
$$

TXZ163>164-176>182-195>201-210>213-226-227-235-221700-
SOUTHEAST TEXAS

CITY           SKY/WX    TMP DP  RH WIND       PRES   REMARKS
COLLEGE STN    SUNNY     87  74  64 S8        30.09R HX  95
*BRYAN         MOSUNNY   88  74  64 SW8G16    30.09S HX  97
*CALDWELL      MOSUNNY   88  72  58 S10       30.11S HX  94
*CROCKETT      MOSUNNY   88  79  74 SW7       30.13S HX 102
*BRENHAM       MOSUNNY   89  73  60 SW9       30.10R HX  97
HUNTSVILLE     SUNNY     85  74  69 SW8       30.11S HX  92
CONROE         PTSUNNY   88  75  65 VRB5      30.11S HX  97
HOUSTON BUSH   MOSUNNY   88  75  66 S7        30.09S HX  97
HOUSTON HOBBY  MOSUNNY   89  75  63 S7        30.09R HX  99
*HOUSTON SW AP MOSUNNY   89  73  60 MISG      30.10S HX  97
PEARLAND       SUNNY     89  73  59 S6        30.11R HX  97
HOUSTON HOOKS  MOSUNNY   89  76  65 S8        30.10R HX 100
ELLINGTON FLD  NOT AVBL
SUGAR LAND     SUNNY     89  75  63 S9        30.09R HX  99
*HOUSTON EXEC  NOT AVBL
*CLEVELAND MUN MOSUNNY   88  78  72 SW7       30.11S HAZE    HX 100
*WHARTON       MOSUNNY   91  74  58 S8        30.08F HX 100
$$

TXZ214>216-236>238-221700-
THE UPPER TEXAS COAST

CITY           SKY/WX    TMP DP  RH WIND       PRES   REMARKS
*ORANGE        PTSUNNY   87  74  65 CALM      30.12S HX  96
PORT ARTHUR    MOSUNNY   89  75  63 SW5       30.10S HX  99
GALVESTON      MOSUNNY   88  75  65 S9        30.10R HX  97
ANGLETON       SUNNY     89  73  59 S5        30.09R HX  97
*BAY CITY      MOSUNNY   92  75  57 S10       30.08S HX 103
PALACIOS       MOSUNNY   89  77  67 S9        30.08R HX 101
$$

TXZ229>234-239>247-221700-
TEXAS COASTAL BEND AND RIO GRANDE PLAINS

CITY           SKY/WX    TMP DP  RH WIND       PRES   REMARKS
VICTORIA       MOSUNNY   94  73  50 S8        30.07S HX 103
*BEEVILLE      SUNNY     90  70  51 S9G20     30.06S HX  95
ROCKPORT       MOSUNNY   89  75  63 S9G16     30.06R HX  99
*PORT ARANSAS  SUNNY     85  78  79 S10       30.07R HX  97
*PORT LAVACA   MOSUNNY   90  75  59 S10       30.07S HX 100
*INGLESIDE     MOSUNNY   90  75  62 S14       30.05F HX 100
CORPUS CHRISTI MOSUNNY   91  71  51 S17       30.05S HX  97
CORPUS NAS     MOSUNNY   89  77  67 S16       30.05S HX 101
*ROBSTOWN      NOT AVBL
ALICE          SUNNY     91  70  49 S14       30.04S HX  96
KINGSVILLE NAS MOSUNNY   94  74  52 S13       30.04F HX 104
COTULLA        SUNNY     90  65  43 S10       30.04R HX  92
*FAITH RANCH   SUNNY     84  66  54 S12G21    30.04R
LAREDO         SUNNY     93  67  42 S16G22    30.04F HX  96
$$

TXZ248>255-221700-
DEEP SOUTH TEXAS

CITY           SKY/WX    TMP DP  RH WIND       PRES   REMARKS
BROWNSVILLE    SUNNY     91  73  55 SE14      30.05S HX  99
PORT ISABEL    SUNNY     92  71  50 SE14      30.04S HX  98
*SOUTH PADRE   SUNNY     88  77  70 S10       30.05S HX 100
HARLINGEN      SUNNY     92  70  48 S18       30.03F HX  97
*HEBBRONVILLE  SUNNY     87  66  49 S12G21    30.06R HX  90
MCALLEN        SUNNY     89  72  56 S14G21    30.04F HX  96
*WESLACO       MOSUNNY   91  69  48 S17       30.04S HAZE    HX  95
FALFURRIAS     SUNNY     96  71  43 S13       30.03F HX 102
EDINBURG       SUNNY     91  70  49 SE14      30.04F HAZE    HX  96
*ZAPATA        SUNNY     91  65  42 SE13G20   30.01S HX  92
$$

TXZ213>215-236>238-242>244-246-247-251-254-255-221700-
CMAN STATIONS

STATION/POSITION TIME  TEMP    WIND        PRES    WAVE
                       AIR SEA DIR/SP/G            HT/PER
                 (UTC) (F)     (DEG/KT/KT) (MB)    (FT/S)
SABINE PASS      1500   87 87  200/  8/ 10 1019.6
SEA RIM ST PARK  1500   86     200/  6/  7 1019.7
NORTH JETTY/GLS  1500   86 86  190/  7/  8   N/A
EAGLE POINT      1500   87 86  190/  3/  3 1019.2
MORGANS POINT    1500   87     180/  3/  5 1019.1
PORT O`CONNOR    1500          190/  9/ 11   N/A
PORT ARANSAS     1500   81 82  170/ 11/ 11 1018.5
MALAQUITE BEACH  1500   80 79  150/  7/  8 1017.4
BAFFIN BAY       1500   84 81  170/ 10/ 13 1017.6
PORT ISABEL      1500   87 80  180/  6/ 11 1018.0
$$

GMZ080-GMZ150>470-221700-
OFFSHORE BUOY REPORTS

STATION/POSITION TIME  TEMP    WIND        PRES    WAVE
                       AIR SEA DIR/SP/G            HT/PER
                 (UTC) (F)     (DEG/KT/KT) (MB)    (FT/S)
90 E PT ARANSAS  1600   85 85  150/  6/  8 1019.1    4/ 8
35 NE PT MANSFLD 1500   83 84  200/ 12/ 12 1017.4    4/ 7
200 E PT ISABEL  1500   85 86  100/  8/ 10 1017.9    2/ 6
$$


USA.gov is the U.S. government's official web portal to all federal, state and local government web resources and services.